Weather History for Gulfport, MS

Change the Weather History Date:

Friday, February 15, 2013

  Actual Average Record
Temperature  
Mean Temperature 50 °F -  
Max Temperature 63 °F 64 °F 75 °F (1957)
Min Temperature 37 °F 48 °F 29 °F (1960)
Degree Days  
Heating Degree Days 15    
Moisture  
Dew Point 40 °F    
Average Humidity 70    
Maximum Humidity 93    
Minimum Humidity 35    
Precipitation  
Precipitation 0.00 in - - ()
Sea Level Pressure  
Sea Level Pressure 30.12 in    
Wind  
Wind Speed 2 mph (NW)    
Max Wind Speed 14 mph    
Max Gust Speed 20 mph    
Visibility 8 miles    
Events      
Averages and records for this station are not official NWS values.
T = Trace of Precipitation, MM = Missing Value Source: NWS Daily Summary

Daily Weather History Graph

Daily Weather History Graph

Search for Another Location

Airport:

Trip Planner

Search our weather history database for the weather conditions in past years. The results will help you decide how hot, cold, wet, or windy it might be!

Date:

Astronomy

Feb. 15, 2013 Rise Set
Actual Time 6:36 AM CST 5:44 PM CST
Civil Twilight 6:11 AM CST 6:09 PM CST
Nautical Twilight 5:43 AM CST 6:37 PM CST
Astronomical Twilight 5:15 AM CST 7:05 PM CST
Moon 9:39 AM CST (2/15) 11:16 PM CST (2/15)
Length of Visible Light 11h 57m
Length of Day
11h 08m
Waxing Crescent, 30% of the Moon is Illuminated
Feb 15
Waxing Crescent
Feb 17
First Quarter
Feb 25
Full
Mar 4
Last Quarter
Mar 11
New

Hourly Weather History & Observations

Time (CST) Temp. Dew Point Humidity Pressure Visibility Wind Dir Wind Speed Gust Speed Precip Events Conditions
12:53 AM 41.0 °F 39.0 °F 93% 30.11 in - Calm Calm - N/A   Clear
1:53 AM 41.0 °F 37.9 °F 89% 30.12 in - Calm Calm - N/A   Clear
2:53 AM 37.9 °F 36.0 °F 93% 30.11 in 5.0 mi Calm Calm - N/A   Clear
3:53 AM 39.0 °F 37.0 °F 93% 30.11 in 6.0 mi Calm Calm - N/A   Clear
4:53 AM 39.0 °F 37.0 °F 93% 30.11 in 5.0 mi Calm Calm - N/A   Clear
5:53 AM 37.9 °F 36.0 °F 93% 30.14 in 6.0 mi Calm Calm - N/A   Clear
6:53 AM 37.9 °F 36.0 °F 93% 30.15 in 4.0 mi Calm Calm - N/A   Clear
7:53 AM 45.0 °F 41.0 °F 86% 30.17 in 5.0 mi Calm Calm - N/A   Clear
8:53 AM 51.1 °F 43.0 °F 74% 30.19 in 7.0 mi North 4.6 mph - N/A   Clear
9:53 AM 57.0 °F 39.9 °F 53% 30.17 in 10.0 mi NW 3.5 mph - N/A   Clear
10:53 AM 60.1 °F 39.0 °F 46% 30.16 in 10.0 mi Variable 4.6 mph - N/A   Clear
11:53 AM 61.0 °F 36.0 °F 39% 30.14 in 10.0 mi Calm Calm - N/A   Clear
12:53 PM 63.0 °F 35.1 °F 35% 30.10 in 10.0 mi North 4.6 mph - N/A   Clear
1:53 PM 61.0 °F 41.0 °F 48% 30.08 in 10.0 mi South 6.9 mph - N/A   Clear
2:53 PM 60.1 °F 41.0 °F 49% 30.07 in 10.0 mi South 5.8 mph - N/A   Clear
3:53 PM 60.1 °F 41.0 °F 49% 30.07 in - South 5.8 mph - N/A   Clear
4:53 PM 59.0 °F 42.1 °F 53% 30.07 in - SSW 6.9 mph - N/A   Clear
5:53 PM 57.0 °F 42.1 °F 57% 30.07 in 10.0 mi Calm Calm - N/A   Clear
6:53 PM 51.1 °F 46.0 °F 83% 30.08 in 10.0 mi Calm Calm - N/A   Clear
7:53 PM 50.0 °F 45.0 °F 83% 30.09 in 10.0 mi Calm Calm - N/A   Clear
8:53 PM 48.9 °F 44.1 °F 83% 30.11 in - Calm Calm - N/A   Clear
9:53 PM 51.1 °F 42.1 °F 71% 30.12 in 10.0 mi North 13.8 mph 19.6 mph N/A   Clear
10:53 PM 50.0 °F 39.9 °F 68% 30.13 in - NNW 9.2 mph - N/A   Clear
11:53 PM 50.0 °F 39.0 °F 66% 30.13 in - NNW 9.2 mph - N/A   Mostly Cloudy